SYN173 EDDK-EGLL

Flight info

Callsign SYN173
Flight time 1h 1m
Altitude 32000
Route NVO2Q/13L NVO Y868 SOGRI DCT DENUT L608 LOGAN
Aircraft BCS3/M-SBDE2E3GIRWXY/LB1

Departure

Time 2026-04-22 18:15
Airport Cologne Bonn Airport (EDDK)

Arrival

Time 2026-04-22 19:16
Airport London Heathrow Airport (EGLL)
Time Latitude Longitude Altitude Speed Heading
2026-04-22 17:54 50.88055 7.12182 238 ft 0 kts 214°
2026-04-22 17:55 50.88053 7.12180 238 ft 0 kts 214°
2026-04-22 17:56 50.88052 7.12179 238 ft 0 kts 214°
2026-04-22 18:00 50.88051 7.12178 238 ft 0 kts 214°
2026-04-22 18:00 50.88049 7.12175 238 ft 1 kts 214°
2026-04-22 18:01 50.88047 7.12174 239 ft 0 kts 214°
2026-04-22 18:05 50.88059 7.12186 238 ft 2 kts 214°
2026-04-22 18:05 50.88072 7.12201 236 ft 2 kts 214°
2026-04-22 18:06 50.88085 7.12215 240 ft 2 kts 214°
2026-04-22 18:06 50.88098 7.12229 236 ft 2 kts 214°
2026-04-22 18:06 50.88111 7.12243 237 ft 2 kts 214°
2026-04-22 18:06 50.88123 7.12257 238 ft 2 kts 214°
2026-04-22 18:07 50.88136 7.12271 238 ft 2 kts 214°
2026-04-22 18:07 50.88149 7.12285 238 ft 2 kts 214°
2026-04-22 18:07 50.88158 7.12295 238 ft 1 kts 214°
2026-04-22 18:07 50.88157 7.12294 238 ft 0 kts 214°
2026-04-22 18:10 50.88156 7.12292 238 ft 1 kts 214°
2026-04-22 18:10 50.88152 7.12292 239 ft 2 kts 188°
2026-04-22 18:10 50.88130 7.12331 240 ft 5 kts 98°
2026-04-22 18:11 50.88126 7.12394 241 ft 6 kts 95°
2026-04-22 18:11 50.88106 7.12468 241 ft 12 kts 131°
2026-04-22 18:11 50.88058 7.12534 241 ft 0 kts 142°
2026-04-22 18:12 50.88057 7.12535 241 ft 1 kts 141°
2026-04-22 18:12 50.88023 7.12585 241 ft 13 kts 135°
2026-04-22 18:12 50.87993 7.12677 241 ft 15 kts 98°
2026-04-22 18:12 50.88001 7.12781 240 ft 5 kts 82°
2026-04-22 18:13 50.88007 7.12850 240 ft 7 kts 82°
2026-04-22 18:13 50.88003 7.12933 241 ft 8 kts 105°
2026-04-22 18:13 50.87981 7.12998 243 ft 6 kts 122°
2026-04-22 18:13 50.87968 7.13022 244 ft 0 kts 135°
2026-04-22 18:14 50.87927 7.13085 246 ft 36 kts 137°
2026-04-22 18:14 50.87519 7.13677 257 ft 120 kts 136°
2026-04-22 18:14 50.86775 7.14751 696 ft 148 kts 139°
2026-04-22 18:15 50.85982 7.15864 1560 ft 158 kts 140°
2026-04-22 18:15 50.85149 7.17030 2476 ft 165 kts 140°
2026-04-22 18:15 50.84270 7.18262 3444 ft 171 kts 140°
2026-04-22 18:15 50.83376 7.19519 4365 ft 174 kts 140°
2026-04-22 18:16 50.82381 7.20916 4739 ft 213 kts 139°
2026-04-22 18:16 50.81191 7.22589 4824 ft 239 kts 139°
2026-04-22 18:16 50.79887 7.24281 4923 ft 244 kts 152°
2026-04-22 18:16 50.78267 7.24966 4993 ft 242 kts 182°
2026-04-22 18:17 50.76650 7.24338 5009 ft 240 kts 209°
2026-04-22 18:17 50.75412 7.22616 5008 ft 238 kts 236°
2026-04-22 18:17 50.74818 7.20237 5004 ft 237 kts 263°
2026-04-22 18:17 50.74927 7.17642 5017 ft 247 kts 281°
2026-04-22 18:18 50.75312 7.14875 5718 ft 260 kts 282°
2026-04-22 18:18 50.75713 7.12041 6683 ft 267 kts 282°
2026-04-22 18:18 50.76118 7.09149 7681 ft 271 kts 282°
2026-04-22 18:18 50.76525 7.06221 8664 ft 275 kts 282°
2026-04-22 18:19 50.76935 7.03248 9610 ft 280 kts 282°
2026-04-22 18:19 50.77352 7.00218 10527 ft 287 kts 282°
2026-04-22 18:19 50.77641 6.97020 11175 ft 299 kts 275°
2026-04-22 18:19 50.77826 6.93686 11878 ft 308 kts 275°
2026-04-22 18:20 50.78008 6.90262 12581 ft 316 kts 275°
2026-04-22 18:20 50.78189 6.86797 13290 ft 322 kts 275°
2026-04-22 18:20 50.78375 6.83234 14004 ft 328 kts 275°
2026-04-22 18:20 50.78563 6.79619 14701 ft 333 kts 275°
2026-04-22 18:21 50.78751 6.75963 15398 ft 337 kts 274°
2026-04-22 18:21 50.78943 6.72219 16101 ft 341 kts 274°
2026-04-22 18:21 50.79133 6.68463 16792 ft 345 kts 274°
2026-04-22 18:21 50.79326 6.64657 17472 ft 349 kts 274°
2026-04-22 18:22 50.79518 6.60821 18135 ft 352 kts 274°
2026-04-22 18:22 50.79712 6.56932 18788 ft 356 kts 274°
2026-04-22 18:22 50.79906 6.53003 19423 ft 360 kts 274°
2026-04-22 18:22 50.80100 6.49052 20044 ft 363 kts 274°
2026-04-22 18:23 50.80296 6.45039 20624 ft 366 kts 274°
2026-04-22 18:23 50.80491 6.41011 21161 ft 370 kts 274°
2026-04-22 18:23 50.80684 6.36985 21725 ft 373 kts 274°
2026-04-22 18:24 50.81076 6.28727 22777 ft 379 kts 274°
2026-04-22 18:24 50.81271 6.24556 23268 ft 382 kts 274°
2026-04-22 18:24 50.81663 6.16087 24206 ft 388 kts 274°
2026-04-22 18:25 50.81858 6.11817 24650 ft 391 kts 274°
2026-04-22 18:25 50.82053 6.07505 25081 ft 394 kts 274°
2026-04-22 18:25 50.82248 6.03158 25498 ft 396 kts 274°
2026-04-22 18:26 50.83003 5.94512 26253 ft 401 kts 288°
2026-04-22 18:26 50.83907 5.90374 26608 ft 404 kts 289°
2026-04-22 18:26 50.84854 5.86181 26981 ft 406 kts 289°
2026-04-22 18:26 50.85810 5.81954 27319 ft 408 kts 289°
2026-04-22 18:27 50.86767 5.77712 27660 ft 410 kts 289°
2026-04-22 18:27 50.87730 5.73434 27977 ft 412 kts 289°
2026-04-22 18:27 50.88691 5.69160 28292 ft 414 kts 289°
2026-04-22 18:27 50.89659 5.64845 28583 ft 416 kts 289°
2026-04-22 18:28 50.90629 5.60512 28860 ft 418 kts 289°
2026-04-22 18:28 50.91590 5.56208 29136 ft 420 kts 289°
2026-04-22 18:28 50.92566 5.51830 29403 ft 422 kts 289°
2026-04-22 18:28 50.93543 5.47432 29660 ft 423 kts 289°
2026-04-22 18:29 50.94524 5.43009 29903 ft 425 kts 289°
2026-04-22 18:29 50.95507 5.38573 30133 ft 426 kts 289°
2026-04-22 18:29 50.96489 5.34125 30355 ft 428 kts 289°
2026-04-22 18:29 50.97473 5.29661 30567 ft 429 kts 289°
2026-04-22 18:30 50.98458 5.25185 30769 ft 431 kts 289°
2026-04-22 18:30 51.00102 5.17689 31088 ft 433 kts 289°
2026-04-22 18:30 51.01091 5.13165 31266 ft 434 kts 289°
2026-04-22 18:31 51.02083 5.08619 31436 ft 436 kts 289°
2026-04-22 18:31 51.03073 5.04071 31600 ft 437 kts 289°
2026-04-22 18:31 51.04067 4.99497 31754 ft 438 kts 289°
2026-04-22 18:31 51.05382 4.93426 31948 ft 439 kts 289°
2026-04-22 18:32 51.06054 4.90316 31993 ft 441 kts 289°
2026-04-22 18:32 51.08049 4.81056 32006 ft 448 kts 289°
2026-04-22 18:33 51.10043 4.71756 31997 ft 437 kts 288°
2026-04-22 18:33 51.12001 4.62585 32002 ft 439 kts 288°
2026-04-22 18:34 51.13967 4.53330 32000 ft 441 kts 288°
2026-04-22 18:34 51.15905 4.44164 32000 ft 438 kts 288°
2026-04-22 18:35 51.17853 4.34908 32000 ft 440 kts 288°
2026-04-22 18:35 51.19792 4.25651 32000 ft 439 kts 288°
2026-04-22 18:36 51.21711 4.16448 32000 ft 440 kts 288°
2026-04-22 18:36 51.23635 4.07177 32000 ft 439 kts 288°
2026-04-22 18:37 51.25548 3.97913 32000 ft 439 kts 288°
2026-04-22 18:37 51.27456 3.88626 32000 ft 439 kts 288°
2026-04-22 18:38 51.29359 3.79320 32000 ft 439 kts 288°
2026-04-22 18:38 51.31249 3.70033 32000 ft 439 kts 288°
2026-04-22 18:39 51.34060 3.56134 31999 ft 440 kts 287°
2026-04-22 18:39 51.34987 3.51484 32616 ft 438 kts 291°
2026-04-22 18:39 51.35900 3.46922 32404 ft 427 kts 291°
2026-04-22 18:40 51.37690 3.37963 32329 ft 422 kts 291°
2026-04-22 18:40 51.39494 3.28916 32328 ft 431 kts 291°
2026-04-22 18:41 51.41307 3.19768 32322 ft 426 kts 291°
2026-04-22 18:41 51.43089 3.10724 32328 ft 426 kts 291°
2026-04-22 18:42 51.44864 3.01678 32328 ft 428 kts 291°
2026-04-22 18:42 51.46635 2.92599 32330 ft 425 kts 290°
2026-04-22 18:43 51.48398 2.83519 32332 ft 427 kts 290°
2026-04-22 18:43 51.50155 2.74415 32334 ft 426 kts 290°
2026-04-22 18:44 51.51899 2.65326 32340 ft 426 kts 290°
2026-04-22 18:44 51.53634 2.56225 32342 ft 426 kts 290°
2026-04-22 18:45 51.55425 2.47220 32347 ft 423 kts 293°
2026-04-22 18:45 51.57464 2.38337 32345 ft 423 kts 293°
2026-04-22 18:46 51.59465 2.29470 32346 ft 423 kts 290°
2026-04-22 18:46 51.60115 2.24799 31967 ft 434 kts 283°
2026-04-22 18:46 51.60554 2.19972 31245 ft 436 kts 281°
2026-04-22 18:47 51.60958 2.15191 30724 ft 429 kts 281°
2026-04-22 18:47 51.61357 2.10425 30115 ft 424 kts 281°
2026-04-22 18:47 51.61740 2.05819 29564 ft 417 kts 281°
2026-04-22 18:47 51.62124 2.01172 29016 ft 410 kts 281°
2026-04-22 18:48 51.62497 1.96642 28492 ft 407 kts 281°
2026-04-22 18:48 51.62866 1.92146 27954 ft 404 kts 281°
2026-04-22 18:48 51.63226 1.87733 27433 ft 403 kts 281°
2026-04-22 18:48 51.63589 1.83270 26898 ft 401 kts 281°
2026-04-22 18:49 51.63950 1.78813 26368 ft 400 kts 281°
2026-04-22 18:49 51.64308 1.74374 25843 ft 398 kts 280°
2026-04-22 18:49 51.64660 1.69964 25317 ft 396 kts 280°
2026-04-22 18:49 51.65011 1.65571 24798 ft 395 kts 280°
2026-04-22 18:50 51.65360 1.61176 24276 ft 396 kts 279°
2026-04-22 18:50 51.65708 1.56774 23695 ft 396 kts 279°
2026-04-22 18:50 51.66050 1.52424 23185 ft 394 kts 279°
2026-04-22 18:50 51.66390 1.48064 22679 ft 391 kts 279°
2026-04-22 18:51 51.66727 1.43733 22150 ft 390 kts 278°
2026-04-22 18:51 51.67063 1.39382 21650 ft 390 kts 278°
2026-04-22 18:51 51.67393 1.35084 21379 ft 384 kts 278°
2026-04-22 18:51 51.67720 1.30814 20724 ft 387 kts 278°
2026-04-22 18:52 51.68047 1.26524 20044 ft 381 kts 277°
2026-04-22 18:52 51.68366 1.22305 19635 ft 384 kts 277°
2026-04-22 18:52 51.68693 1.17963 19102 ft 389 kts 277°
2026-04-22 18:52 51.69014 1.13671 18587 ft 381 kts 276°
2026-04-22 18:53 51.69323 1.09514 18072 ft 374 kts 276°
2026-04-22 18:53 51.69629 1.05364 17588 ft 372 kts 276°
2026-04-22 18:53 51.69931 1.01222 17095 ft 372 kts 276°
2026-04-22 18:53 51.70229 0.97099 16620 ft 366 kts 275°
2026-04-22 18:54 51.70220 0.93034 16201 ft 361 kts 264°
2026-04-22 18:54 51.69974 0.89016 16028 ft 360 kts 262°
2026-04-22 18:54 51.69696 0.84984 15799 ft 362 kts 262°
2026-04-22 18:54 51.69417 0.81000 15575 ft 359 kts 262°
2026-04-22 18:55 51.69136 0.77018 15349 ft 357 kts 261°
2026-04-22 18:55 51.68855 0.73054 15133 ft 356 kts 261°
2026-04-22 18:55 51.68573 0.69084 14912 ft 355 kts 261°
2026-04-22 18:55 51.68292 0.65149 14685 ft 353 kts 261°
2026-04-22 18:56 51.68009 0.61212 14467 ft 352 kts 261°
2026-04-22 18:56 51.67726 0.57293 14248 ft 351 kts 261°
2026-04-22 18:56 51.67447 0.53439 14014 ft 350 kts 261°
2026-04-22 18:56 51.67164 0.49555 13799 ft 348 kts 261°
2026-04-22 18:57 51.66884 0.45721 13577 ft 338 kts 261°
2026-04-22 18:57 51.66616 0.42047 13372 ft 322 kts 261°
2026-04-22 18:57 51.66355 0.38507 13187 ft 315 kts 261°
2026-04-22 18:57 51.66095 0.34998 12964 ft 314 kts 261°
2026-04-22 18:58 51.65835 0.31516 12779 ft 313 kts 261°
2026-04-22 18:58 51.65574 0.28025 12585 ft 312 kts 261°
2026-04-22 18:58 51.65313 0.24553 12390 ft 311 kts 261°
2026-04-22 18:58 51.65056 0.21142 12197 ft 310 kts 261°
2026-04-22 18:59 51.64795 0.17690 12004 ft 309 kts 261°
2026-04-22 18:59 51.64537 0.14260 11809 ft 309 kts 261°
2026-04-22 18:59 51.64278 0.10835 11617 ft 308 kts 261°
2026-04-22 18:59 51.64017 0.07410 11404 ft 306 kts 261°
2026-04-22 19:00 51.63761 0.04010 11210 ft 305 kts 261°
2026-04-22 19:00 51.63505 0.00637 10943 ft 301 kts 261°
2026-04-22 19:00 51.63255 -0.02691 10360 ft 295 kts 261°
2026-04-22 19:00 51.63009 -0.05967 9477 ft 294 kts 261°
2026-04-22 19:01 51.62769 -0.09186 8698 ft 292 kts 261°
2026-04-22 19:01 51.62529 -0.12421 7893 ft 289 kts 261°
2026-04-22 19:01 51.62295 -0.15576 7490 ft 282 kts 261°
2026-04-22 19:01 51.62062 -0.18769 7434 ft 292 kts 261°
2026-04-22 19:02 51.61827 -0.21992 7437 ft 288 kts 261°
2026-04-22 19:02 51.61595 -0.25208 7449 ft 289 kts 261°
2026-04-22 19:02 51.61361 -0.28441 7354 ft 292 kts 261°
2026-04-22 19:02 51.61130 -0.31671 7099 ft 288 kts 261°
2026-04-22 19:03 51.60900 -0.34862 7030 ft 285 kts 261°
2026-04-22 19:03 51.60678 -0.38021 7005 ft 288 kts 261°
2026-04-22 19:03 51.60448 -0.41226 6999 ft 288 kts 261°
2026-04-22 19:03 51.60220 -0.44431 7002 ft 288 kts 261°
2026-04-22 19:04 51.59990 -0.47645 6999 ft 288 kts 261°
2026-04-22 19:04 51.59765 -0.50804 6995 ft 279 kts 261°
2026-04-22 19:04 51.59549 -0.53889 7000 ft 277 kts 261°
2026-04-22 19:04 51.59335 -0.56975 7000 ft 278 kts 261°
2026-04-22 19:05 51.59121 -0.60060 7004 ft 277 kts 261°
2026-04-22 19:05 51.58907 -0.63143 7000 ft 275 kts 261°
2026-04-22 19:05 51.58703 -0.66112 6632 ft 270 kts 261°
2026-04-22 19:05 51.58494 -0.69120 6100 ft 271 kts 261°
2026-04-22 19:06 51.58279 -0.72142 5581 ft 272 kts 261°
2026-04-22 19:06 51.58059 -0.75169 5074 ft 272 kts 261°
2026-04-22 19:06 51.57834 -0.78198 4548 ft 273 kts 261°
2026-04-22 19:07 51.57389 -0.84218 3691 ft 270 kts 261°
2026-04-22 19:07 51.57175 -0.87172 3494 ft 261 kts 261°
2026-04-22 19:07 51.56871 -0.90019 3207 ft 255 kts 245°
2026-04-22 19:07 51.55840 -0.92138 3027 ft 236 kts 207°
2026-04-22 19:08 51.54377 -0.92816 3016 ft 210 kts 170°
2026-04-22 19:08 51.53133 -0.92008 3005 ft 185 kts 134°
2026-04-22 19:08 51.52501 -0.90269 3009 ft 181 kts 111°
2026-04-22 19:08 51.52055 -0.88424 2990 ft 171 kts 110°
2026-04-22 19:09 51.51632 -0.86696 2990 ft 163 kts 110°
2026-04-22 19:09 51.51219 -0.85005 2993 ft 161 kts 110°
2026-04-22 19:09 51.50948 -0.83898 2992 ft 160 kts 110°
2026-04-22 19:09 51.50402 -0.81687 2996 ft 161 kts 110°
2026-04-22 19:10 51.50001 -0.80067 2988 ft 151 kts 110°
2026-04-22 19:10 51.49615 -0.78513 3001 ft 150 kts 110°
2026-04-22 19:10 51.49230 -0.76954 2999 ft 150 kts 110°
2026-04-22 19:10 51.48856 -0.75421 3001 ft 150 kts 110°
2026-04-22 19:11 51.48479 -0.73881 2898 ft 147 kts 110°
2026-04-22 19:11 51.48143 -0.72327 2666 ft 147 kts 104°
2026-04-22 19:11 51.47931 -0.70740 2523 ft 141 kts 99°
2026-04-22 19:11 51.47806 -0.69248 2496 ft 131 kts 96°
2026-04-22 19:12 51.47733 -0.67784 2499 ft 133 kts 94°
2026-04-22 19:12 51.47692 -0.66289 2334 ft 132 kts 92°
2026-04-22 19:12 51.47665 -0.64888 2160 ft 120 kts 91°
2026-04-22 19:12 51.47646 -0.63566 2006 ft 118 kts 90°
2026-04-22 19:13 51.47640 -0.62689 1893 ft 118 kts 90°
2026-04-22 19:13 51.47645 -0.61363 1728 ft 120 kts 88°
2026-04-22 19:13 51.47661 -0.59596 1511 ft 118 kts 89°
2026-04-22 19:13 51.47670 -0.58270 1349 ft 119 kts 90°
2026-04-22 19:14 51.47673 -0.57371 1234 ft 119 kts 89°
2026-04-22 19:14 51.47681 -0.56018 1069 ft 124 kts 88°
2026-04-22 19:14 51.47691 -0.54640 875 ft 123 kts 88°
2026-04-22 19:14 51.47704 -0.53261 708 ft 128 kts 89°
2026-04-22 19:15 51.47713 -0.51843 531 ft 125 kts 91°
2026-04-22 19:15 51.47715 -0.50426 364 ft 130 kts 89°
2026-04-22 19:15 51.47731 -0.48996 181 ft 125 kts 89°
2026-04-22 19:15 51.47738 -0.47637 89 ft 105 kts 89°
2026-04-22 19:16 51.47755 -0.46741 96 ft 62 kts 89°
2026-04-22 19:16 51.47753 -0.46236 93 ft 25 kts 107°
2026-04-22 19:16 51.47655 -0.46091 91 ft 7 kts 144°
2026-04-22 19:16 51.47640 -0.46073 88 ft 1 kts 144°
2026-04-22 19:17 51.47631 -0.46064 88 ft 2 kts 152°
2026-04-22 19:17 51.47616 -0.46057 88 ft 2 kts 169°
2026-04-22 19:17 51.47607 -0.46058 88 ft 0 kts 188°
2026-04-22 19:18 51.47605 -0.46059 88 ft 1 kts 188°
2026-04-22 19:19 51.47554 -0.46083 92 ft 10 kts 199°
2026-04-22 19:19 51.47499 -0.46173 90 ft 12 kts 211°
2026-04-22 19:19 51.47418 -0.46125 92 ft 14 kts 147°
2026-04-22 19:19 51.47374 -0.46108 90 ft 6 kts 206°
2026-04-22 19:20 51.47365 -0.46131 93 ft 0 kts 245°
2026-04-22 19:20 51.47352 -0.46161 89 ft 8 kts 237°
2026-04-22 19:20 51.47341 -0.46190 92 ft 0 kts 237°